Regional Weather Roundup
Issued by NWS Newport/Morehead, NC

Current Version | Previous Version | Graphics & Text | Print | Product List | Glossary Off
Versions: 1 2 3 4 5 6 7 8 9 10 11 12 13 14 15 16 17 18 19 20 21 22 23 24 25 26 27 28 29 30 31 32 33 34 35 36 37 38 39 40 41 42 43 44 45 46 47 48 49 50

008
ASUS42 KMHX 241613
RWRMHX
WEATHER ROUNDUP FOR EASTERN NORTH CAROLINA
NATIONAL WEATHER SERVICE NEWPORT/MOREHEAD CITY NC
1200 PM EDT WED MAY 24 2017

NOTE: "FAIR" INDICATES FEW OR NO CLOUDS BELOW 12,000 FEET
WITH NO SIGNIFICANT WEATHER AND/OR OBSTRUCTIONS TO VISIBILITY

NCZ015>017-031-032-045>047-102-103-241700-
NORTH COAST

CITY           SKY/WX    TMP DP  RH WIND       PRES   REMARKS
EDENTON        CLOUDY    71  65  81 CALM      29.73S
ELIZABETH CITY CLOUDY    66  63  90 N5        29.73S
KITTY HAWK     CLOUDY    65  64  95 CALM      29.72R
MANTEO         CLOUDY    69  64  85 N9        29.73R

$$

NCZ045>047-081-094-103-104-241700-
CENTRAL COAST

CITY           SKY/WX    TMP DP  RH WIND       PRES   REMARKS
FRISCO         FAIR      76  67  73 SW7       29.72F

$$

NCZ095-097-098-100-101-241700-
SOUTHERN COAST

CITY           SKY/WX    TMP DP  RH WIND       PRES   REMARKS
BEAUFORT       PTSUNNY   75  70  84 S7        29.72S
CEDAR ISLAND   NOT AVBL
JACKSONVILLE   NOT AVBL
PINEY ISLAND   CLOUDY   N/A N/A N/A S5        29.71S
WILMINGTON     CLOUDY    78  69  73 W8        29.68F


$$

NCZ011>013-027>030-043-044-078>080-089-090>093-098-241700-
COASTAL PLAIN

CITY           SKY/WX    TMP DP  RH WIND       PRES   REMARKS
AHOSKIE          N/A     66  62  88 CALM      29.72F
CLINTON        PTSUNNY   75  70  85 CALM      29.69S
ELIZABETHTOWN  PTSUNNY   75  68  79 S6        29.69S
GOLDSBORO      CLOUDY    73  70  88 CALM      29.68F
GREENVILLE     CLOUDY    72  68  88 E5        29.74S HAZE
HAVELOCK       NOT AVBL
KENANSVILLE    CLOUDY    73  68  83 CALM      29.69F
KINSTON        CLOUDY    75  64  69 S5        29.70F
NEW BERN       CLOUDY    75  68  78 CALM      29.73S
RICHLANDS      CLOUDY    73  69  87 S3        29.70F
ROCKY MOUNT    CLOUDY    69  66  90 NE7       29.71S
WASHINGTON     CLOUDY    71  67  88 NE3       29.71S
WHITEVILLE     CLOUDY    76  68  78 SW5       29.68F

$$

AMZ130-135-150-152-154-156-158-170-250-252-270-ANZ085-086-088-633-658-670-241700-
MARINE OBSERVATIONS

STATION/POSITION TIME  TEMP    WIND        PRES    WAVE   SWELL
                       AIR SEA DIR/SP/G            HT/PER HT/PER
                 (UTC) (F)     (DEG/KT/KT) (MB)    (FT/S) (FT/S)
CHESAPEAKE LIGHT NOT AVBL
64 E VA BEACH    1550   60 64  310/  6/  8 1006.8    5/ 8   5/ 8
DUCK             1548   61 64  350/ 10/ 11 1006.1
2 E DUCK         1530      65                N/A     3/ 5   2/11
OREGON INLET     1542   65 68   30/  7/  9 1006.3
13E OREGON INLT  1548      66                N/A     5/ 7   5/ 7
HATTERAS CG      1548   74 73  210/  7/ 10 1006.2
DIAMOND BUOY     1550   73 75  240/  8/ 10 1006.4    5/ 8   5/ 8
CAPE LOOKOUT     1500   73     300/  3/  4 1006.1
BEAUFORT LAB     1548   74 72  200/  5/  6 1005.6
30 SE NEW RVR IN 1508   73 76  290/  6/ 10 1006.7
30 SE NEW RVR IN 1543      76                N/A     8/ 8   2/11
27 SE WRIGHTSVLE 1508   76 75  230/ 12/ 17 1005.4
5 SE WRIGHTSVLE  1508   76 74  130/  2/  4 1005.6
225 S CAPE HAT   1550   77 76  200/ 19/ 25 1010.4    9/ 8   2/11
41 SE CHARLESTON 1550   77 77  220/ 16/ 19 1005.6    6/ 7   3/ 7

$$




USA.gov is the U.S. government's official web portal to all federal, state and local government web resources and services.